Find Starlink 3843

NORAD ID: 52341 Int'l Des: 2022-045 Owner: SPXS Country: US Constellation: starlink operational
LEOCIRCULAR

实时位置

正在加载3D地球...

关于 Starlink 3843

正在加载描述...

即将过境

Passes for default location (London). Set your location on the main map for personalized predictions.

高度历史

Loading altitude history...

两行轨道根数

1 52341U 22045L 26119.03413650 -.00000400 00000-0 -70260-5 0 9995
2 52341 53.2185 343.0670 0001237 86.0304 274.0830 15.08834516223246
Epoch: Apr 29, 2026 • Age: 11 hours

当前状态

高度 553.2 km
速度 7.58 km/s
星下点 -39.10°S, 89.39°W
发射日期 Apr 29, 2022
运行时间 3.9 years
类型 internet

技术详情

分类 Payload
质量 297.00 kg
干质量 275.00 kg
总质量 297.00 kg
长度 0.20 m
直径 2.80 m
跨度 9.00 m
形状 Box + pan
制造商 SPXS
平台类型 Starlink
阶段状态 In Orbit
所有者/国家 SPXS/US

Most Searched